Location: East Cambridgeshire
(52.3167°N, 0.3000°E)
Time: 08:39:17
(UTC+00:00)

Daily predictions for brighter satellites

Satellite Brightness Start Highest point End
(mag) Time Altitude Azimuth Time Altitude Azimuth Time Altitude Azimuth
IRS-1A Rocket 4.4 20:27:06 10° SSE 20:32:45 75° ENE 20:38:19 10° NNW
Cosmos 1943 Rocket 3.1 20:27:48 10° NW 20:33:11 46° WSW 20:38:32 10° S
Cosmos 1420 Rocket 4.1 20:28:56 10° NNW 20:34:18 82° ENE 20:39:37 10° SSE
USA 281 3.7 20:28:37 10° SE 20:35:00 55° NE 20:41:24 10° NNW
Cosmos 1743 3.3 20:34:13 10° N 20:37:38 37° ENE 20:41:00 10° SE
Cosmos 2278 Rocket 4.0 20:33:03 10° NW 20:37:46 28° WSW 20:42:28 10° SSW
NOSS 3-1 (A) 4.3 20:31:33 10° NW 20:38:38 69° SW 20:47:18 10° SSE
ISS -3.8 20:35:39 10° W 20:38:59 81° S 20:42:19 10° E
Cosmos 972 4.4 20:36:08 10° S 20:40:58 66° ESE 20:45:55 10° NNE
USA 245 2.2 20:42:52 10° SSE 20:45:05 51° ENE 20:47:17 10° N
Cosmos 2297 3.8 20:39:35 10° NNW 20:45:23 77° ENE 20:51:07 10° SE
Cosmos 1634 Rocket 4.3 20:39:44 10° N 20:45:57 56° ENE 20:52:05 10° SSE
USA 290 2.9 20:46:42 10° NW 20:49:52 52° WSW 20:53:00 10° S
Cosmos 2112 Rocket 4.3 20:45:19 10° S 20:50:26 50° ESE 20:55:33 10° NNE
Cosmos 1766 Rocket 3.7 20:46:21 10° N 20:50:45 62° ENE 20:55:10 10° SSE
Okean-O 3.7 20:48:30 10° S 20:52:42 44° W 20:56:57 10° NNW
USA 229 DEB 4.1 20:46:20 10° NW 20:53:36 78° NE 21:01:35 10° SE
USA 229 4.1 20:46:26 10° NW 20:53:43 78° NE 21:01:42 10° SE
Cosmos 2034 Rocket 4.2 20:48:46 10° NNW 20:54:58 76° W 21:01:12 10° S
Cosmos 1726 3.2 20:53:31 10° NNE 20:56:08 23° ENE 20:58:35 11° SE
Cosmos-2242 4.2 20:52:41 10° SSW 20:56:43 44° WNW 21:00:49 10° N
Spot 2 Rocket 3.5 20:54:31 10° SSE 20:59:31 74° ENE 21:04:35 10° NNW
Cosmos 1680 Rocket 3.5 20:55:23 10° SSW 21:00:38 69° ESE 21:05:53 10° NNE
USA 32 4.1 21:02:17 10° S 21:07:26 63° E 21:12:36 10° NNE
Cosmos 1933 4.4 21:05:38 10° SSW 21:09:26 46° WNW 21:13:17 10° N
Tsikada Rocket 4.0 21:03:42 10° S 21:09:52 77° E 21:16:08 10° NNE
CZ-4C R/B 4.1 21:06:24 10° N 21:09:57 51° WNW 21:13:40 10° SSW
Sich 1 4.5 21:08:54 10° N 21:12:31 25° ENE 21:15:51 11° ESE
USA 276 2.2 21:12:02 10° W 21:14:04 31° SSW 21:15:14 18° SE
Cosmos 2263 4.3 21:09:11 10° NNW 21:14:53 75° ENE 21:20:00 13° SE
MetOp-A 4.1 21:11:24 12° SE 21:15:17 51° ENE 21:19:57 10° N
SL-16 R/B 2.2 21:10:20 10° SSW 21:15:58 73° ESE 21:21:40 10° NNE
Cosmos 2056 Rocket 4.0 21:12:50 10° NNW 21:18:09 58° WSW 21:23:23 10° S
MOS 1 Rocket 3.5 21:13:56 11° SSE 21:18:47 81° ENE 21:24:06 10° NNW
Lacrosse 5 3.1 21:14:27 10° WNW 21:18:56 32° SW 21:23:08 11° SSE
Cosmos 1536 3.5 21:15:43 10° N 21:19:22 38° ENE 21:22:15 15° SE
Cosmos 1624 Rocket 4.5 21:15:25 10° NNW 21:20:30 56° WSW 21:25:33 10° S
Lacrosse 5 rocket 1.3 21:17:07 10° SW 21:21:24 75° SSE 21:25:36 10° ENE
Ariane Rocket 3.1 21:16:55 10° S 21:21:59 77° WSW 21:27:06 10° NNW
Cosmos 1452 Rocket 3.8 21:17:09 10° NNW 21:22:21 58° ENE 21:26:45 14° SE
Cosmos 1408 Rocket 4.1 21:18:28 10° N 21:22:46 45° ENE 21:26:12 15° SE
Cosmos 44 3.9 21:18:09 10° NW 21:22:50 45° WSW 21:26:45 13° SSE
Spot 1 4.3 21:20:13 10° NNE 21:24:07 43° E 21:27:36 13° S
Cosmos 1340 4.3 21:24:08 10° NNE 21:26:41 19° ENE 21:28:49 12° ESE
Cosmos 2369 Rocket 2.3 21:21:57 10° NNW 21:27:33 74° WSW 21:32:23 14° SSE
Cosmos 2221 2.8 21:24:16 10° SSW 21:28:34 72° WNW 21:32:55 10° N
Cosmos 2084 3.9 21:27:39 10° WNW 21:31:13 41° SW 21:33:53 16° SSE
Kosmos-1783 4.4 21:37:27 10° W 21:38:44 24° NNW 21:40:20 10° NNE
USA 306 2.7 21:37:16 10° WNW 21:41:05 78° NNE 21:45:00 10° E
Cosmos 2237 Rocket 4.1 21:38:08 10° WSW 21:43:18 34° NW 21:48:30 10° NNE
Cosmos 921 Rocket 3.1 21:39:02 10° SSW 21:43:31 88° ESE 21:48:03 10° NNE
Okean 3 Rocket 3.7 21:40:04 10° NNW 21:44:29 72° W 21:48:05 15° S
GEOS 3 Rocket 3.5 21:41:00 10° NE 21:46:13 75° SE 21:51:21 10° SW
ATLAS 3B R/B 4.1 21:43:29 10° NW 21:50:24 35° WSW 21:57:02 11° S
Landsat 5 3.1 21:48:04 10° NNE 21:51:53 76° ESE 21:54:55 15° S
Cosmos 1500 Rocket 3.6 21:50:51 10° N 21:55:10 68° ENE 21:57:58 21° SSE
Terra 3.2 21:53:08 10° SSW 21:57:24 33° W 22:01:41 10° NNW
Cosmos 1733 3.4 21:54:52 10° N 21:58:18 49° ENE 22:00:07 24° SE
Cosmos 1943 3.3 21:53:56 10° S 21:59:21 55° ESE 22:04:53 10° NE
ALOS 2 4.4 21:58:50 11° ESE 22:01:57 22° ENE 22:05:17 10° N
USA 234 3.6 21:55:36 10° E 22:02:06 66° NNE 22:08:35 10° WNW
Cosmos 1048 Rocket 3.9 21:59:00 12° SSW 22:03:50 67° ESE 22:08:55 10° NNE
Cosmos 1805 Rocket 3.6 21:59:43 10° N 22:04:05 70° ENE 22:06:48 23° SSE
H-2A R/B 3.5 22:02:30 18° ESE 22:05:01 36° ENE 22:08:54 10° N
Cosmos 1842 Rocket 3.8 22:01:42 11° SSW 22:06:00 69° WNW 22:10:26 10° N
Lacrosse 4 Rocket 3.3 22:03:09 10° NNW 22:06:26 23° NE 22:09:46 10° E
Cosmos 494 Rocket 3.9 22:01:54 10° SSW 22:07:01 89° WNW 22:12:10 10° NNE
Meteor 1-10 Rocket 4.2 22:02:23 13° S 22:07:37 83° E 22:13:19 10° NNE
Meteor 2-9 Rocket 4.3 22:04:57 10° NNW 22:10:46 88° ENE 22:14:56 20° SSE
Cosmos 1151 Rocket 3.8 22:08:37 23° SE 22:10:46 38° E 22:14:49 10° NNE
Cosmos 1302 Rocket 4.2 22:08:35 10° NNW 22:13:46 64° ENE 22:17:13 21° SE
Meteor 1-11 Rocket 3.9 22:08:25 10° NNW 22:14:01 71° W 22:18:13 19° S
ISS -3.4 22:12:18 10° W 22:15:30 44° SSW 22:16:32 32° SSE
Cosmos 1633 Rocket 4.3 22:11:42 10° N 22:15:38 31° ENE 22:18:08 18° ESE
Meteor 2-10 4.2 22:10:17 10° NNW 22:15:58 87° W 22:19:41 21° S
ATLAS 2AS CENTAUR R/B 4.0 22:10:26 10° W 22:17:22 45° NNW 22:24:02 10° NE
Meteor 1-19 Rocket 4.4 22:14:07 19° S 22:18:29 67° E 22:24:14 10° NNE
ARIANE 5 R/B 2.6 22:16:04 24° SSE 22:18:36 71° ENE 22:22:56 10° N
USA 59 Rocket 0.5 22:15:41 10° NW 22:19:12 52° NE 22:22:59 14° ESE
Cosmos 1340 Rocket 3.2 22:17:21 26° SSE 22:19:14 48° E 22:23:07 10° NNE
USA 281 4.0 22:14:24 14° S 22:19:40 42° WSW 22:25:54 10° NW
Cosmos 1331 Rocket 4.3 22:14:41 10° NNW 22:19:53 62° WSW 22:23:13 22° S
NOSS 2-1 (E) 4.0 22:16:33 10° NW 22:20:04 53° NE 22:23:50 15° ESE
MINOTAUR 4 R/B 4.0 22:18:45 10° NNE 22:21:39 44° E 22:22:21 36° SE
Cosmos 1110 Rocket 4.4 22:16:34 10° NNW 22:21:46 56° WSW 22:25:12 21° S
BREEZE-M DEB (TANK) 4.3 22:18:50 10° WSW 22:22:53 66° SSE 22:40:34 10° E
H-2A R/B 4.5 22:24:08 10° E 22:24:26 10° E 22:24:43 10° E
CZ-2C R/B 3.8 22:20:25 10° NNE 22:24:56 57° E 22:27:22 25° S
Cosmos 1726 3.6 22:26:44 10° NW 22:29:18 23° W 22:31:07 15° SW
NOSS 2-1 (D) 3.6 22:28:08 10° NW 22:31:42 66° NE 22:34:55 19° ESE
Nadezhda 4 Rocket 4.0 22:30:38 19° S 22:35:15 85° E 22:41:32 10° N
Cosmos 1805 3.1 22:34:54 10° N 22:38:38 78° E 22:40:09 34° SSE
IRIDIUM 106 4.3 22:36:30 10° N 22:41:46 79° E 22:44:46 26° S
Cosmos 1743 Rocket 4.1 22:41:14 10° NNW 22:45:30 52° W 22:47:56 24° SSW
Sich 1 3.8 22:46:01 10° NNW 22:50:09 43° W 22:52:35 22° SSW
Spot 2 4.4 22:50:57 28° SE 22:53:21 68° ENE 22:58:09 10° NNW
Cosmos 1975 2.7 22:51:36 10° N 22:55:35 89° WSW 22:57:09 35° S
Lacrosse 5 rocket 2.4 22:55:51 10° W 22:59:59 48° N 23:04:01 10° ENE
SL-16 R/B 4.1 22:55:41 10° WSW 23:00:37 30° NW 23:05:37 10° NNE
Cosmos 1340 3.5 22:57:55 10° NNW 23:01:05 36° W 23:02:14 27° SW
Cosmos 1603 3.7 22:57:29 14° SSW 23:02:22 85° WNW 23:08:08 10° NNE
Cosmos 1626 2.1 23:04:41 42° SE 23:05:14 48° E 23:08:23 10° NNE
PSLV R/B 4.0 23:02:15 10° NNE 23:06:20 73° WNW 23:08:26 27° SSW
NOSS 2-1 (C) 3.4 23:03:16 10° NW 23:06:57 73° SW 23:09:07 30° SSE
USA 267 3.6 23:00:53 10° ENE 23:07:01 41° SE 23:10:42 22° SSW
Cosmos 1674 4.1 23:07:50 21° ESE 23:08:29 22° E 23:11:14 10° NE
Meteor 1-27 Rocket 4.3 23:04:40 15° SW 23:09:08 54° WNW 23:14:35 10° N
Cosmos 2369 Rocket 4.3 23:07:48 10° WNW 23:10:36 14° W 23:13:23 10° SW
USA 306 3.0 23:11:03 10° WNW 23:14:45 42° SSW 23:15:15 40° S
Cosmos 2026 Rocket 4.0 23:12:22 24° S 23:16:23 89° W 23:22:42 10° N
Cosmos 1833 Rocket 4.1 23:17:10 19° SE 23:19:02 23° ESE 23:23:20 10° NE
Cosmos 44 Rocket 4.5 23:15:56 10° NW 23:20:42 41° NE 23:25:19 10° ESE
Cosmos 220 Rocket 3.9 23:30:05 36° S 23:31:46 71° ESE 23:36:06 10° NNE
Cosmos 1515 Rocket 3.9 23:31:37 34° SSE 23:33:10 52° E 23:37:24 10° NNE
GP-B 4.5 23:30:01 10° NNE 23:33:54 29° E 23:35:54 20° ESE
Cosmos 1328 Rocket 3.6 23:33:10 33° SSW 23:35:06 76° WNW 23:39:27 10° N
SL-8 R/B 3.8 23:31:31 10° WSW 23:36:07 50° S 23:40:45 10° E
Cosmos 1553 Rocket 3.9 23:30:10 10° N 23:36:17 86° W 23:39:39 28° S
Meteor 1-18 Rocket 4.4 23:33:56 26° SSW 23:37:30 80° WNW 23:43:29 10° NNE
ALOS 2 2.8 23:36:13 34° SSW 23:37:56 59° W 23:42:18 10° NNW
Spot 4 4.5 23:37:28 28° SSW 23:39:31 44° W 23:44:06 10° NNW
Cosmos 1470 Rocket 3.6 23:35:33 10° NNW 23:40:01 71° W 23:41:47 36° S
H-2A R/B 3.8 23:38:30 22° SW 23:40:02 29° W 23:43:44 10° NW
Cosmos 1869 Rocket 4.4 23:36:41 10° N 23:40:49 41° ENE 23:42:58 24° SE
Lacrosse 4 Rocket 1.3 23:41:04 10° NW 23:45:07 70° WSW 23:46:29 40° SSE
USA 234 3.2 23:38:51 11° SE 23:45:07 72° SSW 23:51:42 10° WNW
Meteor 2-4 Rocket 4.2 23:42:31 22° SSW 23:46:23 60° WNW 23:52:17 10° N
NOSS 8 (A) 4.2 23:46:21 48° SSW 23:47:09 71° SE 23:50:12 10° NE
Cosmos 1633 Rocket 4.1 23:49:22 10° NNW 23:53:23 35° W 23:55:08 25° SW
